Home   Weather   Newtown   Past weeks

Flag for United Kingdom Past Weather in Newtown, Wales, United Kingdom — Yesterday and Last 2 Weeks

Now
40 °F

Chilly.


Feels Like: 37 °F
Forecast: 31 / 46 °F
Wind: 3 mph from Southwest

Location: Lake Vyrnwy

Current Time: Jan 24, 2017 at 11:33:18 am

Latest Report: Jan 24, 2017 at 10:00 am


Visibility: 6 mi

Pressure: 30.30 "Hg

Humidity: 99%

Dew Point: 39 °F

Location of NewtownLocation

Past Weather in Newtown — Graph

°F

Newtown Temperature Yesterday

Maximum temperature yesterday: 44 °F (at 1:00 pm)
Minimum temperature yesterday: 34 °F (at 5:00 am)
Average temperature yesterday: 38 °F

High & Low Weather Summary for the Past Weeks

 TemperatureHumidityPressure
High49 °F (Jan 11, 3:00 am)100% (Jan 13, 6:00 pm)30.66 "Hg (Jan 13, 6:00 pm)
Low28 °F (Jan 22, 12:00 am)64% (Jan 11, 2:00 pm)29.50 "Hg (Jan 12, 3:00 pm)
Average38 °F92%30.23 "Hg
* Reported Jan 9 10:00 am — Jan 24 10:00 am, Newtown, Weather by CustomWeather, © 2017

Note: Actual official high and low records may vary slightly from our data, if they occured in-between our weather recording intervals... More about our weather records

Advertising

Newtown Weather History for the Previous 24 Hours

Scroll right to see more
 ConditionsComfort  
Time TempWeatherWind HumidityBarometerVisibility
10:00 am
Tue, Jan 24
40 °FChilly.3 mph99%30.30 "Hg6 mi
9:00 am39 °FChilly.5 mph100%30.28 "Hg4 mi
8:00 am39 °FChilly.7 mph99%30.27 "Hg6 mi
7:00 am37 °FChilly.6 mph99%30.27 "Hg4 mi
6:00 am37 °FChilly.9 mph98%30.26 "Hg6 mi
5:00 am36 °FChilly.9 mph99%30.27 "Hg6 mi
4:00 am36 °FChilly.2 mph98%30.28 "Hg6 mi
3:00 am36 °FChilly.7 mph97%30.29 "Hg5 mi
2:00 am35 °FChilly.13 mph99%30.29 "Hg6 mi
1:00 am35 °FChilly.2 mph95%30.30 "Hg9 mi
12:00 am35 °FChilly.6 mph94%30.31 "Hg11 mi
11:00 pm
Mon, Jan 23
36 °FChilly.3 mph92%30.31 "Hg16 mi
10:00 pm35 °FChilly.5 mph91%30.32 "Hg12 mi
9:00 pm34 °FChilly.5 mph97%30.32 "Hg9 mi
8:00 pm36 °FChilly.2 mph98%30.32 "Hg5 mi
7:00 pm37 °FChilly.1 mph96%30.32 "Hg6 mi
6:00 pm38 °FChilly.3 mph91%30.32 "Hg12 mi
5:00 pm39 °FChilly.2 mph95%30.31 "Hg8 mi
4:00 pm42 °FQuite cool.9 mph89%30.30 "Hg19 mi
3:00 pm42 °FQuite cool.8 mph90%30.31 "Hg14 mi
2:00 pm42 °FQuite cool.9 mph90%30.31 "Hg18 mi
1:00 pm44 °FQuite cool.8 mph92%30.32 "Hg14 mi
12:00 pm42 °FQuite cool.8 mph98%30.34 "Hg6 mi
11:00 am40 °FQuite cool.5 mph97%30.36 "Hg7 mi
Weather by CustomWeather, © 2017

See weather overviewHow to use our weather pages